{"data":{"norad_id":48215,"intl_designator":"2021-031F","name":"ONEWEB-0209","alt_names":[],"object_type":"PAYLOAD","status":"ACTIVE","operator":null,"country":"UK","launch_date":"2021-04-25","launch_site_code":"VOSTO","launch_vehicle":null,"mission":null,"orbit_class":"UNKNOWN","rcs_meters":null,"size_class":null,"mass_kg":null,"dimensions":null,"purposes":["comms"],"wikipedia_slug":null,"has_3d_model":false,"image_url":null,"decayed_at":null,"tle_current":{"epoch":"2026-09-20T00:12:39.945024Z","epoch_age_seconds":64465,"freshness":"FRESH","line1":"1 48215U 21031F   26263.00879566  .00000265  00000+0  68152-3 0  9994","line2":"2 48215  87.8896 270.7995 0001660  95.0664 265.0655 13.14501662260837","mean_motion":13.14501662,"eccentricity":0.000166,"inclination_deg":87.8896,"raan_deg":270.7995,"arg_perigee_deg":95.0664,"mean_anomaly_deg":265.0655,"bstar":0.00068152,"rev_number":26083,"period_min":109.54721790226,"perigee_km":1204.5357990512,"apogee_km":1207.0536643861,"semimajor_km":7583.9317317187,"source":"CELESTRAK","updated_at":"2026-09-20T09:00:44.592944Z"}}}